Regional Weather Roundup
Issued by NWS

Home | Current Version | Previous Version | Text Only | Print | Product List | Glossary Off
Versions: 1 2 3 4 5 6 7 8 9 10 11 12 13 14 15 16 17 18 19 20 21 22 23 24 25 26 27 28 29 30 31 32 33 34 35 36 37 38 39 40 41 42 43 44 45 46 47 48 49 50

000
ASUS43 KBIS 031602
RWRND

NORTH DAKOTA REGIONAL WEATHER ROUNDUP
NATIONAL WEATHER SERVICE BISMARCK ND
1100 AM CDT WED JUN 03 2015

NOTE: "FAIR" INDICATES FEW OR NO CLOUDS BELOW 12,000 FEET WITH NO
SIGNIFICANT WEATHER AND/OR OBSTRUCTIONS TO VISIBILITY.


NDZ001>003-009>011-017-031700-
NORTHWEST NORTH DAKOTA

CITY           SKY/WX    TMP DP  RH WIND       PRES   REMARKS
WILLISTON      SUNNY     61  44  53 E10       30.04R
MINOT          CLOUDY    56  42  59 N17       30.01R
MINOT AFB      CLOUDY    54  46  75 NE13      30.01R
$$

NDZ018>021-031>035-040>046-031700-
SOUTHWEST NORTH DAKOTA

CITY           SKY/WX    TMP DP  RH WIND       PRES   REMARKS
BISMARCK       CLOUDY    56  43  61 N13G22    29.99S
DICKINSON      PTSUNNY   57  45  64 NE10      30.01F
GARRISON         N/A     58  40  51 NE9G18    30.00R
HETTINGER ARPT PTSUNNY   56  48  74 N13       30.03S
$$

NDZ004>008-012>016-024-026-027-054-031700-
NORTHEAST NORTH DAKOTA

CITY           SKY/WX    TMP DP  RH WIND       PRES   REMARKS
GRAND FORKS    CLOUDY    53  48  83 N17G23    29.84R
GRND FRKS AFB  CLOUDY    53  47  80 N14       29.86R
DEVILS LAKE    CLOUDY    54  39  58 N16       29.92R
$$

NDZ022-023-025-028>030-036>039-047>053-031700-
SOUTHEAST NORTH DAKOTA

CITY           SKY/WX    TMP DP  RH WIND       PRES   REMARKS
FARGO          CLOUDY    57  53  86 NW13      29.82R
JAMESTOWN      CLOUDY    54  47  77 N18       29.88S
$$




USA.gov is the U.S. government's official web portal to all federal, state and local government web resources and services.